This is the latest recevied weather packets stored in our database for station/object SQ5LTL-2. If no packets are shown the sender has not sent any weather packets the latest 1 day(s).
| Time | Temp. | Humidity | Pressure | Rain* | Wind** | Luminosity | Snow |
|---|---|---|---|---|---|---|---|
| 1777994416 | 26.11° C | 25% | 1008.3 hPa | 0 mm | 1.79 m/s, 186° | 189 W/m² | - |
| 1777994136 | 25.56° C | 25% | 1008.3 hPa | 0 mm | 1.34 m/s, 178° | 161 W/m² | - |
| 1777993833 | 25.56° C | 25% | 1008.2 hPa | 0 mm | 1.34 m/s, 196° | 133 W/m² | - |
| 1777993532 | 25.56° C | 25% | 1008.3 hPa | 0 mm | 1.79 m/s, 183° | 122 W/m² | - |
| 1777993230 | 25.56° C | 24% | 1008.4 hPa | 0 mm | 1.79 m/s, 191° | 122 W/m² | - |
| 1777992930 | 25.56° C | 24% | 1008.4 hPa | 0 mm | 0.89 m/s, 198° | 130 W/m² | - |
| 1777992627 | 26.11° C | 24% | 1008.4 hPa | 0 mm | 0.89 m/s, 194° | 136 W/m² | - |
| 1777992326 | 26.11° C | 24% | 1008.5 hPa | 0 mm | 1.34 m/s, 197° | 148 W/m² | - |
| 1777992024 | 26.11° C | 23% | 1008.6 hPa | 0 mm | 1.79 m/s, 197° | 145 W/m² | - |
| 1777991723 | 26.11° C | 23% | 1008.5 hPa | 0 mm | 1.34 m/s, 196° | 146 W/m² | - |
| 1777991422 | 26.11° C | 23% | 1008.7 hPa | 0 mm | 1.79 m/s, 198° | 135 W/m² | - |
| 1777991121 | 26.67° C | 23% | 1008.9 hPa | 0 mm | 1.79 m/s, 198° | 155 W/m² | - |
| 1777990819 | 26.67° C | 23% | 1008.8 hPa | 0 mm | 1.79 m/s, 214° | 199 W/m² | - |
| 1777990518 | 26.67° C | 23% | 1008.8 hPa | 0 mm | 2.68 m/s, 197° | 300 W/m² | - |
| 1777990216 | 26.67° C | 23% | 1008.8 hPa | 0 mm | 1.79 m/s, 184° | 368 W/m² | - |
| 1777989934 | 26.67° C | 24% | 1008.9 hPa | 0 mm | 2.68 m/s, 175° | 399 W/m² | - |
| 1777989632 | 26.67° C | 24% | 1009 hPa | 0 mm | 2.68 m/s, 191° | 349 W/m² | - |
| 1777989331 | 26.67° C | 24% | 1008.9 hPa | 0 mm | 2.68 m/s, 170° | 290 W/m² | - |
| 1777989030 | 26.67° C | 24% | 1008.9 hPa | 0 mm | 2.24 m/s, 200° | 320 W/m² | - |
| 1777988728 | 27.22° C | 23% | 1008.9 hPa | 0 mm | 2.24 m/s, 181° | 306 W/m² | - |
| 1777988428 | 27.22° C | 23% | 1009 hPa | 0 mm | 2.24 m/s, 187° | 424 W/m² | - |
| 1777988125 | 27.22° C | 23% | 1008.9 hPa | 0 mm | 2.68 m/s, 186° | 447 W/m² | - |
| 1777987832 | 27.22° C | 23% | 1009.1 hPa | 0 mm | 2.24 m/s, 190° | 475 W/m² | - |
| 1777987522 | 26.67° C | 24% | 1009 hPa | 0 mm | 1.79 m/s, 187° | 403 W/m² | - |
| 1777987221 | 26.67° C | 24% | 1009.1 hPa | 0 mm | 1.34 m/s, 207° | 274 W/m² | - |
* Rain latest hour (hover to see other rain measurements)
** Current wind speed in m/s (hover to see current wind gust speed)